DAMPETORP Weather Reports


Display with metric or nautical units.
time (UTC)temp
F
wind
direction
speed
MPH
gust
MPH
rain 1hr
in
rain 24hr
in
rain mn
in
humidity
%
barometer
mb
20260505023058 41 89 0.0 5.0 0.00 0.07 0.00 72 1004.0
20260505021611 42 137 0.0 3.0 0.00 0.07 0.00 75 1003.8
20260505020052 42 99 0.0 5.0 0.00 0.08 0.00 78 1003.6
20260505014550 43 27 1.0 4.0 0.00 0.08 0.00 82 1003.5
20260505013046 43 147 1.0 4.0 0.00 0.08 0.00 87 1003.4
20260505011551 44 46 1.0 4.0 0.00 0.08 0.00 88 1003.3
20260505010044 44 34 1.0 7.0 0.00 0.08 0.00 88 1003.3
20260505004544 44 109 3.0 9.0 0.00 0.08 0.00 87 1003.2
20260505003038 44 19 0.0 8.0 0.00 0.08 0.00 86 1003.1
20260505001536 45 46 1.0 8.0 0.00 0.08 0.00 85 1002.9
20260505000033 45 70 4.0 13.0 0.00 0.08 0.00 84 1002.9
20260504234531 45 344 1.0 12.0 0.00 0.08 0.00 84 1002.9
20260504233029 45 46 3.0 12.0 0.00 0.08 0.00 83 1002.9
20260504231526 46 46 5.0 13.0 0.00 0.08 0.00 82 1002.9
20260504230027 46 35 1.0 9.0 0.00 0.08 0.00 80 1002.9
20260504224523 46 40 3.0 12.0 0.00 0.08 0.00 79 1002.8
20260504223019 47 30 2.0 8.0 0.00 0.08 0.00 76 1002.8
20260504221516 47 50 5.0 13.0 0.00 0.08 0.00 74 1002.8
20260504220020 47 67 4.0 12.0 0.00 0.08 0.08 70 1002.9
20260504214513 48 331 3.0 11.0 0.00 0.08 0.08 65 1002.8
20260504213012 48 44 6.0 15.0 0.00 0.08 0.08 60 1002.8
20260504211510 49 11 5.0 14.0 0.00 0.08 0.08 56 1002.8
20260504210010 49 76 4.0 9.0 0.00 0.08 0.08 53 1002.8
20260504204515 49 43 4.0 16.0 0.00 0.08 0.08 51 1002.9
20260504203008 49 42 0.0 8.0 0.00 0.08 0.08 52 1002.9
20260504201508 49 13 2.0 5.0 0.00 0.08 0.08 52 1002.9
20260504200007 50 63 3.0 12.0 0.00 0.08 0.08 51 1002.9
20260504194508 50 33 0.0 4.0 0.00 0.08 0.08 51 1003.0
20260504193006 51 41 1.0 5.0 0.00 0.08 0.08 50 1003.0
20260504191509 51 66 2.0 12.0 0.00 0.08 0.08 51 1003.0
20260504190006 52 27 2.0 8.0 0.00 0.08 0.08 50 1003.0
20260504184506 53 136 3.0 11.0 0.00 0.08 0.08 48 1002.9
20260504183004 53 330 1.0 10.0 0.00 0.08 0.08 46 1003.0
20260504181504 54 50 1.0 9.0 0.00 0.08 0.08 44 1003.1
20260504180003 55 58 3.0 12.0 0.00 0.08 0.08 42 1003.0
20260504174502 55 19 3.0 16.0 0.00 0.08 0.08 41 1003.0
20260504173004 56 41 2.0 13.0 0.00 0.08 0.08 41 1003.1
20260504171501 56 150 1.0 15.0 0.00 0.08 0.08 42 1003.0
20260504170104 57 151 2.0 10.0 0.00 0.08 0.08 42 1002.9
20260504160105 58 80 6.0 16.0 0.00 0.08 0.08 37 1002.7
20260504081523 52 122 2.0 10.0 0.00 0.09 0.08 84 1002.0
20260504044542 46 28 1.0 4.0 0.02 0.13 0.08 98 1002.6
20260504043043 46 336 2.0 7.0 0.02 0.12 0.07 98 1002.8
20260504041538 46 36 1.0 7.0 0.02 0.12 0.07 98 1002.9
20260504040037 45 74 0.0 4.0 0.02 0.11 0.06 98 1003.0
20260504034537 45 353 1.0 3.0 0.04 0.11 0.06 98 1003.0
20260504033035 45 323 3.0 6.0 0.04 0.10 0.06 98 1003.0
20260504031534 45 340 2.0 5.0 0.04 0.09 0.05 98 1003.2
20260504030032 45 346 0.0 2.0 0.04 0.09 0.04 97 1003.4
20260504024533 45 346 0.0 0.0 0.02 0.07 0.02 97 1003.6